AirNav   Air Wisconsin Up To $57,000 Bonus
 
 1057 users online  

3L2 Sky Ranch Airport
Sandy Valley, Nevada, USA

GOING TO SANDY VALLEY?


FAA INFORMATION EFFECTIVE 08 OCTOBER 2020

Location

FAA Identifier: 3L2
Lat/Long: 35-47-34.6000N 115-37-35.1000W
35-47.576667N 115-37.585000W
35.7929444,-115.6264167
(estimated)
Elevation: 2599 ft. / 792.2 m (surveyed)
Variation: 14E (1985)
From city: 2 miles SW of SANDY VALLEY, NV
Time zone: UTC -7 (UTC -8 during Standard Time)
Zip code: 89019

Airport Operations

Airport use: Open to the public
Activation date: 06/1979
Control tower: no
ARTCC: LOS ANGELES CENTER
FSS: RENO FLIGHT SERVICE STATION
NOTAMs facility: RNO (NOTAM-D service available)
Attendance: IREG
Wind indicator: yes
Segmented circle: yes

Airport Communications

CTAF/UNICOM: 123.0

Nearby radio navigation aids

VOR radial/distance  VOR name  Freq  Var
LASr218/28.5LAS VEGAS VORTAC116.9015E
BLDr237/39.0BOULDER CITY VORTAC116.7015E

Airport Services

Parking: hangars and tiedowns

Runway Information

Runway 3/21

Dimensions: 3340 x 45 ft. / 1018 x 14 m
Surface: asphalt, in good condition
Runway edge lights: non-standard
RWY 03/21 RTHL ONLY. RWY EDGES MARKED WITH REFLECTORS.
RUNWAY 3  RUNWAY 21
Traffic pattern: rightleft
Displaced threshold: no180 ft.
DSPLCD THLD MARKED WITH 8 FT WHITE LINE.
Markings: basic, in good conditionbasic, in good condition
Obstructions: none17 ft. road, 200 ft. from runway
+16 FT ROAD, 0-200 FT FROM RWY END, 125 FT R TO OB. +4 FT FENCE, 0-200 FT FROM RWY END, 108 FT R TO OB.

Runway 12/30

Dimensions: 3300 x 105 ft. / 1006 x 32 m
Surface: dirt, in fair condition
Operational restrictions: RY 12/30 THLD NOT MARKED.
RUNWAY 12  RUNWAY 30
Latitude: 35-47.765960N35-47.388083N
Longitude: 115-37.825518W115-37.345095W
Elevation: 2575.0 ft.2575.0 ft.
Traffic pattern: rightleft
Runway heading: 120 magnetic, 134 true300 magnetic, 314 true
Markings: nonenone

Airport Ownership and Management from official FAA records

Ownership: Privately-owned
Owner: SKY RANCH HOMEOWNERS ASSN
838 SARATOGA AVENUE
SANDY VALLEY, NV 89019-8623
Phone 702-723-5018
Manager: STEVE VAN FRANK
838 SARATOGA AVENUE
SANDY VALLEY, NV 89019-8623
Phone 702-420-3559

Airport Operational Statistics

Aircraft based on the field: 86
Single engine airplanes: 72
Multi engine airplanes: 5
Helicopters: 2
Gliders airplanes: 2
Ultralights: 5
    
Aircraft operations: avg 80/week *
77% local general aviation
17% transient general aviation
4% military
1% air taxi
* for 12-month period ending 30 September 2019

Additional Remarks

AVOID NOISE SENSITIVE RESIDENTIAL AREA 1.5 MILES NW OF ARPT.
LOW FLYING MILITARY AIRCRAFT IN AREA.
UNMARKED & UNLIGHTED POWER POLES/LINES NW/SE OF RWY 03/21.
ARPT IS A RESIDENTIAL AIRPARK; AUTO TRAFFIC IS ON & ACROSS RWYS & TWYS.
OCNL LIVESTOCK ON AND INVOF ACFT MOVEMENT AREAS.
RY 03/21 OBSTACLE FREE AREA LIMITED TO 96 FT EITHER SIDE OF RY CNTRLN.
NO LINE OF SIGHT BTWN RY ENDS.
ULTRALIGHT ACTIVITY ON AND IN VICINTY OF AIRPORT.
FOR CD CTC LAS VEGAS APCH AT 725-200-4432.

Instrument Procedures

There are no published instrument procedures at 3L2.

Some nearby airports with instrument procedures:

KHND - Henderson Executive Airport (26 nm NE)
KLAS - Mc Carran International Airport (29 nm NE)
KVGT - North Las Vegas Airport (33 nm NE)
KBVU - Boulder City Municipal Airport (38 nm E)
KLSV - Nellis Air Force Base (39 nm NE)
 
Loc | Ops | Rwys | IFR | FBO | Links
Com | Nav | Svcs | Stats | Notes
Area around 3L2 (Sky Ranch Airport)
 
Road maps at: MapQuest Bing Google
 
Aerial photo
WARNING: Photo may not be current or correct
Aerial photo of 3L2 (Sky Ranch Airport)
Photo by Greg Tarasoff

Do you have a better or more recent aerial photo of Sky Ranch Airport that you would like to share? If so, please send us your photo.

 
Sectional chart

 
Airport distance calculator
Flying to Sky Ranch Airport? Find the distance to fly.

From to 3L2

Sunrise and sunset
Times for 29-Oct-2020
 Local
(UTC-7)
 Zulu
(UTC)
Morning civil twilight06:3813:38
Sunrise07:0414:04
Sunset17:4800:48
Evening civil twilight18:1501:15

Current date and time
Zulu (UTC)  29-Oct-2020 23:31:37
Local (UTC-7)  29-Oct-2020 16:31:37
 
METAR
KHND 
27nm NE 
292256Z 02005KT 10SM CLR 25/M07 A3009 RMK AO2 SLP195 T02501067
KLAS 
29nm NE 
292256Z 00000KT 10SM CLR 26/M07 A3006 RMK AO2 SLP166 T02561072
KVGT 
32nm NE 
292253Z 00000KT 10SM CLR 27/M07 A3003 RMK AO2 SLP172 T02671067
KBVU 
38nm E 
292315Z AUTO 06004KT 10SM CLR 26/M08 A3006 RMK AO2
KLSV 
39nm NE 
292258Z AUTO 23005KT 10SM CLR 27/M06 A3003 RMK AO2 SLP156 T02681061 $
KINS 
47nm N 
292258Z AUTO 00000KT 10SM CLR 24/M12 A3009 RMK AO2 SLP164 T02421122 $
TAF
KHND 
27nm NE 
291723Z 2918/3018 VRB05KT P6SM SKC FM300300 17006KT P6SM SKC FM301600 VRB05KT P6SM SKC
KLAS 
29nm NE 
292051Z 2921/3024 VRB05KT P6SM SKC FM300200 21006KT P6SM SKC FM301500 VRB05KT P6SM SKC
KVGT 
32nm NE 
291723Z 2918/3018 VRB04KT P6SM SKC FM300200 32006KT P6SM SKC FM301700 VRB05KT P6SM SKC
NOTAMs
Click for the latest NOTAMs
NOTAMs are issued by the DoD/FAA and will open in a separate window not controlled by AirNav.

 

 
 

Would you like to see your business listed on this page?

 If your business provides an interesting product or service to pilots, flight crews, aircraft, or users of the Sky Ranch Airport, you should consider listing it here.  To start the listing process, click on the button below
 
Add a business
 

Other Pages about Sky Ranch Airport

Update a link
 
Copyright © AirNav, LLC. All rights reserved. Privacy Policy  Contact